Location: Cornospital
(48.0620°N, 3.3837°W)
Time: 17:56:17
(UTC+00:00)

Cosmos 1674 - Visible Passes

Search period start: 23 October 2021 00:00
Search period end: 02 November 2021 00:00
Orbit: 492 x 515 km, 82.5° (Epoch: 23 October)

Date Brightness Start Highest point End Pass type
(mag) Time Alt. Az. Time Alt. Az. Time Alt. Az.
23 Oct 4.2 04:15:02 20° SSE 04:17:03 35° E 04:20:30 10° NNE visible
23 Oct 4.1 05:50:01 10° WSW 05:52:40 18° WNW 05:55:22 10° NNW visible
24 Oct 4.6 03:58:03 27° E 03:58:22 27° E 04:01:34 10° NNE visible
24 Oct 3.7 05:32:53 21° W 05:33:49 23° WNW 05:36:54 10° NNW visible
25 Oct 5.3 03:40:38 19° ENE 03:40:38 19° ENE 03:42:33 10° NE visible
25 Oct 3.5 05:15:27 29° WNW 05:15:27 29° WNW 05:18:21 10° N visible
26 Oct 5.9 03:22:58 12° NE 03:22:58 12° NE 03:23:24 10° NE visible
26 Oct 4.0 04:57:47 25° NNW 04:57:47 25° NNW 04:59:43 10° N visible
27 Oct 4.7 04:39:57 18° N 04:39:57 18° N 04:41:04 10° N visible
28 Oct 5.3 04:21:59 12° N 04:21:59 12° N 04:22:21 10° N visible
